Darrow, LA

10:45 AM CST on December 03, 2016 (GMT -0600)
Gonzales

Weather History for KL38 - October, 2012

Change the Weather History Date:

Monday, October 8, 2012

  Actual Average (KBTR) Record (KBTR)
Temperature  
Mean Temperature 61 °F 72 °F  
Max Temperature 71 °F 83 °F 93 °F (1914)
Min Temperature 52 °F 61 °F 40 °F (1952)
Degree Days  
Heating Degree Days 4 1  
Month to date heating degree days 3  
Since 1 July heating degree days 5  
Cooling Degree Days 0 7  
Month to date cooling degree days 66  
Year to date cooling degree days 2637  
Growing Degree Days 11 (Base 50)    
Moisture  
Dew Point 51 °F    
Average Humidity 72    
Maximum Humidity 94    
Minimum Humidity 54    
Precipitation  
Precipitation 0.00 in 0.14 in 3.98 in (2004)
Month to date precipitation 1.11  
Year to date precipitation 47.36  
Snow  
Snow - - - ()
Month to date snowfall  
Since 1 July snowfall  
Since 1 September snowfall  
Snow Depth -    
Sea Level Pressure  
Sea Level Pressure 30.11 in    
Wind  
Wind Speed 4 mph ()    
Max Wind Speed 12 mph    
Max Gust Speed -    
Visibility 10.0 miles    
Events      
T = Trace of Precipitation, MM = Missing Value Source: Averaged Metar Reports

Daily Weather History Graph

Daily Weather History Graph

Search for Another Location

Airport or City:

Trip Planner

Search our weather history database for the weather conditions in past years. The results will help you decide how hot, cold, wet, or windy it might be!

Date:

Astronomy

Oct. 08, 2012 Rise Set
Actual Time 7:01 AM CDT 6:40 PM CDT
Civil Twilight 6:37 AM CDT 7:04 PM CDT
Nautical Twilight 6:09 AM CDT 7:31 PM CDT
Astronomical Twilight 5:42 AM CDT 7:59 PM CDT
Moon 12:09 AM CDT (10/8) 2:03 PM CDT (10/8)
Length of Visible Light 12h 26m
Length of Day
11h 38m
Last Quarter, 46% of the Moon is Illuminated
Oct 8
Last Quarter
Oct 15
New
Oct 21
First Quarter
Oct 29
Full
Nov 6
Last Quarter

Hourly Weather History & Observations

Time (CDT) Temp. Dew Point Humidity Pressure Visibility Wind Dir Wind Speed Gust Speed Precip Events Conditions
12:15 AM 54.7 °F 51.3 °F 88% 30.11 in 10.0 mi North 3.5 mph - N/A   Clear
12:35 AM 54.5 °F 51.4 °F 89% 30.11 in 10.0 mi Calm Calm - N/A   Clear
12:55 AM 54.1 °F 51.3 °F 90% 30.10 in 10.0 mi North 3.5 mph - N/A   Clear
1:15 AM 54.1 °F 51.3 °F 90% 30.10 in 10.0 mi North 3.5 mph - N/A   Clear
1:35 AM 54.0 °F 50.9 °F 89% 30.10 in 10.0 mi North 3.5 mph - N/A   Clear
1:55 AM 54.0 °F 50.9 °F 89% 30.10 in 10.0 mi North 4.6 mph - N/A   Clear
2:15 AM 53.8 °F 50.5 °F 89% 30.09 in 10.0 mi Calm Calm - N/A   Clear
2:35 AM 54.0 °F 50.4 °F 88% 30.10 in 10.0 mi Calm Calm - N/A   Clear
2:55 AM 54.0 °F 50.5 °F 88% 30.09 in 10.0 mi Calm Calm - N/A   Scattered Clouds
3:15 AM 53.6 °F 50.5 °F 89% 30.09 in 10.0 mi Calm Calm - N/A   Mostly Cloudy
3:35 AM 53.1 °F 50.9 °F 92% 30.10 in 10.0 mi NW 3.5 mph - N/A   Mostly Cloudy
3:55 AM 52.2 °F 50.4 °F 94% 30.10 in 10.0 mi NNW 3.5 mph - N/A   Scattered Clouds
4:15 AM 52.0 °F 50.4 °F 94% 30.10 in 10.0 mi NNW 4.6 mph - N/A   Clear
4:35 AM 52.7 °F 50.2 °F 91% 30.10 in 10.0 mi North 4.6 mph - N/A   Scattered Clouds
4:55 AM 52.7 °F 49.8 °F 90% 30.11 in 10.0 mi North 6.9 mph - N/A   Scattered Clouds
5:15 AM 52.7 °F 49.3 °F 88% 30.11 in 10.0 mi North 9.2 mph - N/A   Scattered Clouds
5:35 AM 52.2 °F 48.7 °F 88% 30.10 in 10.0 mi North 4.6 mph - N/A   Scattered Clouds
5:55 AM 52.2 °F 48.4 °F 87% 30.12 in 10.0 mi North 8.1 mph - N/A   Clear
6:15 AM 52.2 °F 48.2 °F 86% 30.12 in 10.0 mi North 6.9 mph - N/A   Scattered Clouds
6:35 AM 52.7 °F 48.2 °F 85% 30.13 in 10.0 mi North 6.9 mph - N/A   Overcast
6:55 AM 52.3 °F 47.7 °F 84% 30.14 in 10.0 mi North 6.9 mph - N/A   Scattered Clouds
7:15 AM 52.2 °F 47.5 °F 84% 30.15 in 10.0 mi North 6.9 mph - N/A   Clear
7:35 AM 52.3 °F 46.8 °F 81% 30.16 in 10.0 mi North 6.9 mph - N/A   Clear
7:55 AM 53.1 °F 46.4 °F 78% 30.16 in 10.0 mi North 5.8 mph - N/A   Clear
8:15 AM 54.0 °F 46.2 °F 75% 30.16 in 10.0 mi North 8.1 mph - N/A   Clear
8:35 AM 55.4 °F 46.2 °F 71% 30.16 in 10.0 mi North 6.9 mph - N/A   Clear
8:55 AM 57.4 °F 45.7 °F 65% 30.16 in 10.0 mi NNE 5.8 mph - N/A   Mostly Cloudy
9:15 AM 57.7 °F 46.6 °F 66% 30.17 in 10.0 mi NE 3.5 mph - N/A   Overcast
9:35 AM 58.3 °F 45.9 °F 63% 30.17 in 10.0 mi NE 4.6 mph - N/A   Overcast
9:55 AM 58.8 °F 46.9 °F 65% 30.18 in 10.0 mi North 6.9 mph - N/A   Overcast
10:15 AM 59.5 °F 46.9 °F 63% 30.18 in 10.0 mi North 9.2 mph - N/A   Scattered Clouds
10:35 AM 60.8 °F 47.7 °F 62% 30.17 in 10.0 mi NNE 6.9 mph - N/A   Clear
10:55 AM 62.4 °F 48.4 °F 60% 30.16 in 10.0 mi NE 8.1 mph - N/A   Clear
11:15 AM 62.8 °F 48.7 °F 60% 30.16 in 10.0 mi NNE 8.1 mph - N/A   Clear
11:35 AM 63.9 °F 49.8 °F 60% 30.16 in 10.0 mi North 9.2 mph - N/A   Clear
11:55 AM 64.4 °F 49.6 °F 59% 30.16 in 10.0 mi North 8.1 mph - N/A   Mostly Cloudy
12:15 PM 65.1 °F 50.5 °F 59% 30.15 in 10.0 mi North 10.4 mph - N/A   Mostly Cloudy
12:35 PM 66.4 °F 50.9 °F 57% 30.14 in 10.0 mi NNW 8.1 mph - N/A   Mostly Cloudy
12:55 PM 66.6 °F 50.7 °F 57% 30.13 in 10.0 mi North 9.2 mph - N/A   Scattered Clouds
1:15 PM 67.3 °F 51.4 °F 57% 30.12 in 10.0 mi NNW 11.5 mph - N/A   Scattered Clouds
1:35 PM 67.8 °F 51.1 °F 55% 30.11 in 10.0 mi NNW 8.1 mph - N/A   Scattered Clouds
1:55 PM 68.0 °F 51.6 °F 56% 30.10 in 10.0 mi North 5.8 mph - N/A   Clear
2:15 PM 68.7 °F 52.3 °F 56% 30.09 in 10.0 mi North 9.2 mph - N/A   Clear
2:35 PM 69.6 °F 52.7 °F 55% 30.08 in 10.0 mi NNE 5.8 mph - N/A   Clear
2:55 PM 70.2 °F 52.9 °F 54% 30.08 in 10.0 mi North 5.8 mph - N/A   Clear
3:15 PM 70.5 °F 53.2 °F 54% 30.08 in 10.0 mi North 10.4 mph - N/A   Clear
3:35 PM 70.9 °F 53.4 °F 54% 30.08 in 10.0 mi NNW 5.8 mph - N/A   Clear
3:55 PM 70.2 °F 52.7 °F 54% 30.07 in 10.0 mi NNW 6.9 mph - N/A   Clear
4:15 PM 70.7 °F 53.1 °F 54% 30.07 in 10.0 mi NW 8.1 mph - N/A   Clear
4:35 PM 70.3 °F 53.1 °F 54% 30.07 in 10.0 mi North 4.6 mph - N/A   Clear
4:55 PM 70.3 °F 53.2 °F 55% 30.07 in 10.0 mi North 3.5 mph - N/A   Clear
5:15 PM 70.0 °F 53.1 °F 55% 30.07 in 10.0 mi NNE 5.8 mph - N/A   Clear
5:35 PM 69.6 °F 52.7 °F 55% 30.07 in 10.0 mi NNE 5.8 mph - N/A   Clear
5:55 PM 68.4 °F 52.5 °F 57% 30.08 in 10.0 mi North 6.9 mph - N/A   Clear
6:15 PM 67.5 °F 52.9 °F 59% 30.08 in 10.0 mi North 3.5 mph - N/A   Clear
6:35 PM 65.8 °F 52.7 °F 62% 30.09 in 10.0 mi North 4.6 mph - N/A   Clear
6:55 PM 64.8 °F 52.3 °F 64% 30.09 in 10.0 mi North 5.8 mph - N/A   Clear
7:15 PM 63.3 °F 52.5 °F 68% 30.09 in 10.0 mi North 4.6 mph - N/A   Clear
7:35 PM 62.1 °F 52.9 °F 72% 30.09 in 10.0 mi North 4.6 mph - N/A   Clear
7:55 PM 62.6 °F 52.2 °F 69% 30.09 in 10.0 mi North 4.6 mph - N/A   Clear
8:15 PM 61.5 °F 52.2 °F 71% 30.10 in 10.0 mi North 3.5 mph - N/A   Clear
8:35 PM 60.8 °F 52.3 °F 74% 30.11 in 10.0 mi North 4.6 mph - N/A   Clear
8:55 PM 60.4 °F 52.3 °F 75% 30.11 in 10.0 mi North 3.5 mph - N/A   Clear
9:15 PM 59.9 °F 52.2 °F 76% 30.12 in 10.0 mi North 3.5 mph - N/A   Clear
9:35 PM 59.4 °F 52.2 °F 77% 30.12 in 10.0 mi Calm Calm - N/A   Clear
9:55 PM 58.6 °F 52.5 °F 80% 30.12 in 10.0 mi Calm Calm - N/A   Clear
10:15 PM 55.9 °F 53.6 °F 92% 30.12 in 10.0 mi North 3.5 mph - N/A   Clear
10:55 PM 55.9 °F 53.4 °F 91% 30.13 in 10.0 mi Calm Calm - N/A   Clear
11:35 PM 54.7 °F 53.1 °F 94% 30.13 in 10.0 mi Calm Calm - N/A   Clear